Saturday, November 18, 2017, 10:00 PM EST
Back to Local

KJHW, Jamestown, Chautauqua County/jamestown Airport

Location: Jamestown, NY, United States Lat: 42.15
Local Time: 10:00 PM EST ( 3:00 GMT) Lon: -79.267
Time Zone: US/Eastern Elev: 1722 ft

Show me the last for .
Show Decoded

2017-11-18 20:56 METAR KJHW 190156Z AUTO 22009KT 10SM OVC006 11/09 A2917 RMK AO2 PK WND
                 17026/0126 RAE55 PRESRR SLP885 P0002 T01060094 =
2017-11-18 20:10 METAR KJHW 190110Z AUTO 20013KT 10SM -RA BKN008 OVC046 10/09 A2920 RMK AO2 CIG
                 007V012 P0001 =
2017-11-18 19:56 METAR KJHW 190056Z AUTO 20014G19KT 10SM -RA BKN010 BKN016 OVC046 10/09 A2920 RMK
                 AO2 CIG 007V014 SLP898 P0002 T01000089 =
2017-11-18 18:56 METAR KJHW 182356Z AUTO 18011G17KT 10SM -RA OVC007 09/08 A2922 RMK AO2 CIG
                 004V010 SLP905 P0010 60058 T00890083 10089 20061 55033 =
2017-11-18 18:36 METAR KJHW 182336Z AUTO 18015G22KT 10SM -RA OVC005 09/08 A2923 RMK AO2 P0009 =
2017-11-18 17:56 METAR KJHW 182256Z AUTO 18011KT 4SM -RA BR OVC003 08/08 A2925 RMK AO2 SLP916
                 P0020 T00780078 TSNO =
2017-11-18 17:54 METAR KJHW 182254Z AUTO 19008KT 2 1/2SM -RA BR OVC003 08/08 A2926 RMK AO2 P0020
                 TSNO =
2017-11-18 17:51 METAR KJHW 182251Z AUTO 20010KT 1SM -RA BR OVC003 08/07 A2926 RMK AO2 P0019
                 RVRNO =
2017-11-18 17:38 METAR KJHW 182238Z AUTO 17011G17KT 1/2SM -RA FG OVC003 07/07 A2926 RMK AO2 P0019
                 RVRNO =
2017-11-18 17:29 METAR KJHW 182229Z AUTO 17011KT 3/4SM -RA BR OVC003 07/07 A2926 RMK AO2 PRESFR
                 P0017 RVRNO =
2017-11-18 17:24 METAR KJHW 182224Z AUTO 17010KT 1 3/4SM RA BR OVC003 07/07 A2928 RMK AO2 PRESFR
                 P0016 =
2017-11-18 16:56 METAR KJHW 182156Z AUTO 19006KT 5SM RA BR OVC003 07/07 A2932 RMK AO2 SLP941
                 P0010 T00720067 =
2017-11-18 15:56 METAR KJHW 182056Z AUTO 18010KT 10SM -RA OVC003 07/06 A2933 RMK AO2 SLP944 P0011
                 60018 T00670061 56046 =
2017-11-18 14:56 METAR KJHW 181956Z AUTO 18011KT 5SM -RA BR OVC003 06/06 A2937 RMK AO2 RAB01
                 SLP960 P0007 T00610061 =
2017-11-18 14:19 METAR KJHW 181919Z AUTO 19011KT 10SM -RA OVC003 06/06 A2941 RMK AO2 RAB01 P0000
                 =
2017-11-18 13:56 METAR KJHW 181856Z AUTO 17009KT 10SM OVC005 06/06 A2941 RMK AO2 RAE36 SLP973
                 P0000 T00610056 =
2017-11-18 12:56 METAR KJHW 181756Z AUTO 19011KT 8SM -RA OVC005 06/06 A2947 RMK AO2 RAB25 SLP995
                 P0000 60000 T00610056 10061 20028 57034 TSNO =
2017-11-18 11:56 METAR KJHW 181656Z AUTO 20010KT 10SM OVC005 06/04 A2952 RMK AO2 SLP011 T00560044
                 =
2017-11-18 10:56 METAR KJHW 181556Z AUTO 19010G17KT 8SM OVC005 05/04 A2953 RMK AO2 SLP017
                 T00500044 =
2017-11-18 09:56 METAR KJHW 181456Z AUTO 20009G16KT 10SM OVC005 05/04 A2958 RMK AO2 SLP033 60000
                 T00500039 58018 =
2017-11-18 08:56 METAR KJHW 181356Z AUTO 20009G17KT 10SM OVC007 04/03 A2960 RMK AO2 RAB1259E24
                 SLP041 P0000 T00440033 =
2017-11-18 07:56 METAR KJHW 181256Z AUTO 19012KT 10SM OVC009 04/03 A2962 RMK AO2 SLP046 T00390028
                 =
2017-11-18 07:40 METAR KJHW 181240Z AUTO 19011G19KT 10SM OVC009 04/03 A2962 RMK AO2 CIG 008V012 =
2017-11-18 07:17 METAR KJHW 181217Z AUTO 19013KT 10SM BKN013 OVC019 03/02 A2963 RMK AO2 =
2017-11-18 06:56 METAR KJHW 181156Z AUTO 19014KT 10SM FEW015 BKN027 OVC033 03/01 A2964 RMK AO2
                 RAE56 SLP054 P0001 60005 70005 T00280006 10050 20006 56022 =
2017-11-18 05:56 METAR KJHW 181056Z AUTO 18009KT 10SM -RA FEW050 OVC060 03/M01 A2967 RMK AO2
                 RAB01 SLP065 P0004 T00281006 =
2017-11-18 04:56 METAR KJHW 180956Z AUTO 20008KT 10SM FEW060 OVC080 05/M05 A2970 RMK AO2 RAB36E50
                 SLP075 P0000 T00501050 =
2017-11-18 03:56 METAR KJHW 180856Z AUTO 18008KT 10SM BKN110 03/M05 A2972 RMK AO2 SLP082
                 T00331050 57032 =
2017-11-18 02:56 METAR KJHW 180756Z AUTO 18011KT 10SM BKN110 02/M05 A2976 RMK AO2 SLP095
                 T00221050 FZRANO =
2017-11-18 01:56 METAR KJHW 180656Z AUTO 18007KT 10SM CLR 01/M04 A2979 RMK AO2 SLP106 T00111044
                 FZRANO =
2017-11-18 00:56 METAR KJHW 180556Z AUTO 18007KT 10SM CLR 01/M04 A2982 RMK AO2 SLP119 T00061039
                 10011 21006 58037 FZRANO =
2017-11-17 23:56 METAR KJHW 180456Z AUTO 18009KT 10SM CLR 00/M03 A2987 RMK AO2 SLP137 T00001033
                 400281022 FZRANO =
2017-11-17 22:56 METAR KJHW 180356Z AUTO 18007KT 10SM CLR 00/M03 A2991 RMK AO2 SLP151 T00001028
                 FZRANO =

Support USWX by starting your Amazon purchase here.